Regional Weather Roundup
Issued by NWS Wakefield, VA

Home | Current Version | Previous Version | Graphics & Text | Print | Product List | Glossary On
Versions: 1 2 3 4 5 6 7 8 9 10 11 12 13 14 15 16 17 18 19 20 21 22 23 24 25 26 27 28 29 30 31 32 33 34 35 36 37 38 39 40 41 42 43 44 45 46 47 48 49 50
000
ASUS41 KAKQ 050910
RWRAKQ

REGIONAL WEATHER ROUNDUP
NATIONAL WEATHER SERVICE WAKEFIELD VA
400 AM EST THU MAR 05 2015

Note: "fair" indicates few or no clouds below 12,000 feet with no
significant weather and/or obstructions to visibility. * = Denotes
station may not report precipitation (e.g., rain,snow,etc.),
thunder or fog.

VAZ042-051-052>054-056-051000-
NORTHERN VIRGINIA

CITY           SKY/WX    TMP DP  RH WIND       PRES   REMARKS
WASH NATIONAL  LGT RAIN  41  35  79 NW8       30.02R
DULLES         LGT RAIN  36  33  89 N14       30.00R
FORT BELVOIR   LGT RAIN  39  36  87 VRB5      30.02R
QUANTICO       LGT RAIN  39  35  86 N10       30.02R FOG
FREDERICKSBRG* RAIN      40  40 100 N10       29.99R
STAFFORD*      HVY RAIN  38  32  79 N12       30.03R
WARRENTON      LGT RAIN  38  38 100 N9        29.99R
CULPEPER*      LGT RAIN  39  37  93 N7        29.99R
MANASSAS*      CLOUDY    37  37 100 N8        30.01R
LEESBURG*      LGT RAIN  36  36 100 N13G18    30.01R
WINCHESTER     DRIZZLE   36  32  87 N9        29.99F
FRONT ROYAL*   CLOUDY    36  32  87 N3        29.99S
LURAY*         LGT RAIN  37  37 100 NE6       29.96F
$$

VAZ048-049-060>072-079>083-051000-
CENTRAL AND SOUTH CENTRAL VIRGINIA

CITY           SKY/WX    TMP DP  RH WIND       PRES   REMARKS
RICHMOND       RAIN      46  42  86 NE12      29.94R FOG
CHESTERFIELD*  CLOUDY    46  36  66 N9        29.95R
PETERSBURG*    LGT RAIN  50  48  95 N10       29.92R
HANOVER        LGT RAIN  42  40  92 N6        29.97R FOG
TAPPAHANNOCK*  DRIZZLE   43  41  94 N9        29.96R
QUINTON*       CLOUDY    45  43  95 N7        29.94R
CHARLOTTSVILLE LGT RAIN  42  40  92 NE8       29.93S
GORDONSVILLE*  CLOUDY    39  39  98 NE10      29.95R
ORANGE*        RAIN      39  37  93 N9        29.98R
LOUISA*        RAIN      41  39  93 NE10G17   29.94R
BUMPASS*       CLOUDY    41  40  96 N5        29.96S
FARMVILLE*     DRIZZLE   51  51 100 N9        29.90F
CREWE*         CLOUDY    51  50  96 N3        29.90R
FORT PICKETT*  CLOUDY    51  51  97 N7        29.89S
CHASE CITY*    CLOUDY    54  54 100 N5        29.88S
CLARKSVILLE*   CLOUDY    52  52 100 N8        29.87S
SOUTH HILL*    CLOUDY    52  51  97 CALM      29.93R
LAWRENCEVILLE* CLOUDY    52  52  99 NE5       29.87F
EMPORIA*       CLOUDY    52  52 100 N6        29.89S
$$

VAZ088>098-051000-
SOUTHEAST VIRGINIA

CITY           SKY/WX    TMP DP  RH WIND       PRES   REMARKS
NORFOLK        FOG       40  38  93 N14       29.91S VSB 1/4
VIRGINIA BEACH CLOUDY    46  43  89 N5        29.90S FOG
NORFOLK NAVAL  CLOUDY    46  42  86 N14       29.94R
WEST POINT*    CLOUDY    48  46  91 N3        29.95R
SALUDA*        CLOUDY    42  41  96 N8        29.93R
NEWPORT NEWS   LGT RAIN  49  45  86 NE15G21   29.91S
LANGLEY AFB    CLOUDY    46  45  97 N8        29.92R
FORT EUSTIS    DRIZZLE   48 N/A N/A VRB6      29.91R
WILLIAMSBURG*  CLOUDY    48  48 100 NE7       29.92S
HR EXEC AP*    CLOUDY    48  46  93 NE12G20   29.94R
FRANKLIN*      CLOUDY    52  51  97 CALM      29.91R
WAKEFIELD      LGT RAIN  51  49  92 VRB7      29.90R FOG
$$

VAZ020-022-025-037-045-051000-
WEST CENTRAL AND SOUTHWEST VIRGINIA

CITY           SKY/WX    TMP DP  RH WIND       PRES   REMARKS
STAUNTON*      DRIZZLE   38  37  96 NE13      29.94F
WAYNESBORO*    CLOUDY    39  39 100 N12G17    29.92S
HOT SPRINGS VA FOG       32  32 100 NW8G16    29.84F VSB<1/4
LYNCHBURG      LGT RAIN  47  47 100 N5        29.90F FOG
DANVILLE       LGT RAIN  52  50  93 N5        29.90R FOG
SOUTH BOSTON*  CLOUDY    51  50  95 N5        29.89R
MARTINSVILLE   LGT RAIN  50  50 100 N3        29.91S
ROANOKE        CLOUDY    44  42  93 NE5       29.92F
BLACKSBURG     CLOUDY    37  36  98 W5        29.92F
DUBLIN*        CLOUDY    39  39  99 N6        29.91S
MARION*        DRIZZLE   41  38  90 NW6       29.92S
HILLSVILLE*    CLOUDY    41  41 100 N5        29.87F FOG
RICHLANDS*     DRIZZLE   31  30  95 N10G17    29.96S WCI  23
WISE*          MIX PCPN  32  32 100 N10       29.97F WCI  24
ABINGDON*      DRIZZLE   38  37  94 N6        29.91F
$$

MDZ021>025-VAZ099-100-051000-
SOUTHERN MARYLAND AND THE DELMARVA PENINSULA

CITY           SKY/WX    TMP DP  RH WIND       PRES   REMARKS
PATUXENT RIVER LGT RAIN  39  37  92 N12       29.96R FOG
BAY BRIDGE APT   N/A     36  36 100 N8        30.00R
LEONARDTOWN    CLOUDY    39  37  93 CALM      29.99R
DOVER          LGT RAIN  37  37 100 NW9       29.96R
GEORGETOWN     LGT RAIN  39  37  92 N8        29.96F FOG
EASTON         DRIZZLE   40  40 100 N7        30.01R
CAMBRIDGE      CLOUDY    41  39  93 N7        29.96R
SALISBURY      LGT RAIN  44  40  85 N10       29.96R FOG
OCEAN CITY     CLOUDY    41  40  96 N8        29.94S
WALLOPS ISLAND CLOUDY    44  42  93 NE13      29.93S
ACCOMACK*      LGT RAIN  43  43 100 N8        29.92S
$$

NCZ012>017-030>032-051000-
NORTH CENTRAL AND EASTERN NORTH CAROLINA

CITY           SKY/WX    TMP DP  RH WIND       PRES   REMARKS
ROANOKE RAPIDS CLOUDY    54  54 100 NE3       29.87F FOG
RALEIGH        LGT RAIN  64  58  80 SW12      29.86S
ELIZABETH CITY CLOUDY    62  59  90 SW10      29.88F
AHOSKIE*       MOCLDY    54  54  98 N5        29.88S
EDENTON*       MOCLDY    59  58  94 S6        29.89S
CURRITUCK*     CLOUDY    62  59  90 SW5       29.89S
KILL DEVIL HLS PTCLDY    63  63 100 SW14G20   29.89S
MANTEO         MOCLDY    61  61 100 SW15G23   29.91R
CAPE HATTERAS  CLOUDY    59  59 100 SW15G24   29.94F FOG
TARBORO*       CLOUDY    64  60  86 S3        29.88F
GOLDSBORO      PTCLDY    65  65 100 S13G20    29.88S
WASHINGTON     CLEAR     66  63  89 SW8       29.90S
GREENVILLE     PTCLDY    64  63  94 SW9G16    29.92R
NEW BERN       PTCLDY    67  63  87 S12       29.93S
WILMINGTON     PTCLDY    66  63  90 SW16G24   29.96R
$$

VAZ048-051000-
ELSEWHERE

CITY           SKY/WX    TMP DP  RH WIND       PRES   REMARKS
HARRISBURG PA  LGTSLEET  34  31  88 NW12      29.99F
BALTIMORE      LGT RAIN  37  34  89 NW9       29.99R
ANNAPOLIS      CLOUDY    38  34  85 NW13      29.99R
ANDREWS AFB    RAIN      37  37 100 N10       29.99R
PHILADELPHIA   FLURRIES  37  33  85 NW10      29.97R
HENDERSON NC   LGT RAIN  53  51  94 CALM      29.88R
GREENSBORO     CLOUDY    54  52  94 N9        29.86R
ROCKY MOUNT    CLOUDY    66  61  84 S14G21    29.87F
$$

VAZ100-051000-
MARINE

STATION/POSITION TIME  TEMP    WIND        PRES    WAVE   SWELL
                       AIR SEA DIR/SP/G            HT/PER HT/PER
                 (UTC) (F)     (DEG/KT/KT) (MB)    (FT/S) (FT/S)
BRANDYWINE LGT   0900   36 31  350/ 14/ 16   N/A
CAPE MAY NJ      0900   35 34  330/  5/  9   N/A
LEWES DE         0900   35 32  330/ 10/ 11   N/A
15NM E FENWICK I 0900   37 36              1013.3R   3/ 7
OCEAN-CITY-INLET 0900   40 36   30/  8/ 13   N/A
WACHAPREAGUE VA  0900   46 42   20/  6/  8   N/A
THOMAS POINT MD  0900   38 32  360/ 10/ 10 1016.8R
COVE POINT MD    0900   35      20/ 11/ 12   N/A
SOLOMONS ISLAND  0900      33                N/A
BISHOPS HEAD MD  0900   38 35  360/  7/ 10   N/A
CAMBRIDGE MD     0900   38 32   10/  9/ 11   N/A
LEWISETTA VA     0900      34   10/  5/ 10   N/A
RAPPAHANNOCK LGT 0900           10/ 18/ 18   N/A
STINGRAY PT      0900   37      20/ 12/ 14   N/A
YORK RVR RNG VA  0900   42      20/ 15/ 21   N/A
YORKTOWN VA      0900   45 35   40/ 12/ 15   N/A
DOMINION TERM VA 0900   46      30/  9/ 17   N/A
KIPTOPEKE VA     0900      40   20/  7/ 10   N/A
CHES BAY BRIDGE  0900   37 35   10/ 14/ 16   N/A
CAPE HENRY VA    0900   37     330/  9/ 12   N/A
CHESAPEAKE LGHT  0800   44     350/  9/ 11 1013.2R
WILLOUBY STN VA  0900           10/ 19/ 23   N/A
S CRANEY ISL VA  0900          360/  8/ 12   N/A
CAPE HENRY BUOY  0900      37                N/A     3/ 7   2/11
1ST LANDING BUOY 0900   37     350/ 12/ 19 1012.2S
OFFSHORE WE BUOY 0900      37                N/A     4/ 7   5/ 7
64NM E OF VA BCH 0900   54 52  220/ 17/ 21 1011.4R   7/ 7   2/11
DUCK PIER NC     0900   60 35  200/ 12/ 15   N/A
44100 DUCK FRF   0900      37                N/A     4/ 6
44056 DUCK FRF   0900      36                N/A     3/ 7   2/11
OREGON INLET NC  0900   51 50  200/ 16/ 20   N/A
HATTERAS NC      0900   60 48  210/ 15/ 19   N/A
CAPE LOOKOUT NC  0800   59     220/  9/ 12 1015.0F
$$


USA.gov is the U.S. government's official web portal to all federal, state and local government web resources and services.